"Pseudo-MPEC" for P21pnqN

Created 2021 Nov 27 10:07:22 UT using Find_Orb

Click here for an explanation of pseudo-MPECs

 
 Astrometry: 
     P21pnqN  C2021 11 25Q5\K$AstrometryHu$';Cru\EitZNERr2])`.XM`mcer2AG2NNw#F52
     P21pnqN  C2021 11 25YElSZ@R2loP$X.+r!o]s[X@mXHu/#yBHEP(f(n2!dbYvJenL4+yoF52
     P21pnqN  C2021 11 25ctvBl+EENHj$P0`EC;c_u_0:-6N8redacted;5wU/mQclick,_]+F52
     P21pnqN  C2021 11 25*eSOC^_)]\EBt9,4Fv8emmO`E[\f^!tgDXM';/;+.khTg*l-Q_\lF51
     P21pnqN  C2021 11 25^=Ft]*uWr?iy!^b'Sn(a9p;[Uah,!Jx_AD4$)/6U)%.*dp1=m%XtF51
     P21pnqN  C2021 11 269s6'Y7+2PL0PmN@HWF0;d'L[Et:#8ipe%wDp\0.A?94mY7$YGswNF51
     P21pnqN  C2021 11 26EYNss+1bvASu76+lDL17;XqR6*hereS/(\.a0(4;9Q=jrq?daJ0+F51
     P21pnqN  C2021 11 26QACFSnxix+Rg`Awh0m\ad3[EQvIa(T\%iMR2K^d,KK'#m7p)R4/fF51
     P21pnqN KC2021 11 27p.qlX3N2o-g9Z?K`#6F);'`.s08KD!k:0caBvi.EQu^eo0%rKU;-858
     P21pnqN KC2021 11 27;IK;Qp=Cd'`%#\oe';@e0*k\for*p8E#Sn)%d5O[29br??.h*ihE858
     P21pnqN KC2021 11 27/SU9xlCo*hr77VpUEE6W_ROXq7F!h!6uVOtMiexplanation,o;D858
     P21pnqN KC2021 11 27.26025 02 05 50.09 +16 38 33.0    ~BR8b 21.6 RoNEOCP691
     P21pnqN KC2021 11 27.30176 02 06 01.02 +16 39 21.1    ~BR8b 20.9 RoNEOCP691

Station data:
(691) Steward Observatory, Kitt Peak - Spacewatch  (N31.962174 W111.600327)
   US/Arizona.  Observer J. V. Scotti. 0.9-m f/3 reflector + CCD.
(858) Tebbutt Observatory, Edgewood  (N35.093872 W106.220000)  US/New Mexico.
(F51) Pan-STARRS 1, Haleakala  (N20.707235 W156.255910)  US/Hawaii.
   Observers N. Primak, A. Schultz, S. Watters, J. Thiel, T. Goggia. Measurer
   PS1 Science Consortium. 1.8-m Ritchey-Chrétien + CCD.
(F52) Pan-STARRS 2, Haleakala  (N20.707384 W156.255910)  US/Hawaii. 1.8-m
   Ritchey-Chrétien + CCD.

Orbital elements:  P21pnqN
   Perihelion 2021 Dec 11.635498 +/- 0.0368423 TT = 15:15:07 (JD 2459560.135498)
Epoch 2021 Nov 27.0 TT = JDT 2459545.5   Earth MOID: 0.0561   Ma: 0.0534
M 353.37208402 +/- 0.0193883        (J2000 ecliptic)          AutoNEOCP
n   0.45286576 +/- 0.00174308       Peri.  173.69070 +/- 0.0809299
a   1.67940867 +/- 0.00430924       Node   264.78147 +/- 0.0380652
e   0.3801925 +/- 0.00152739        Incl.    0.68612 +/- 0.0024587
P   2.18/794.92d           H 25.7   G  0.15   U  8.5  
q 1.04090995 +/- 0.000152896    Q 2.31790739 +/- 0.00853248
From 13 observations 2021 Nov. 25-27; mean residual 0".24
Residuals in arcseconds: 
211125 F52  .19+  .10-    211126 F51  .17+  .06+    211127 858  .39-  .30-    
211125 F52  .62-  .27+    211126 F51  .01-  .02+    211127 691  .02-  .08-    
211125 F52  .44+  .03-    211126 F51  .11-  .00     211127 691  .02+  .46+    
211125 F51  .01-  .11-    211127 858  .07-  .07-    
211125 F51  .01-  .05-    211127 858  .44+  .14-    

Ephemerides (geocentric):
Date (UTC) HH   RA              Dec         delta   r     elong  mag " sig PA
---- -- -- --  -------------   -----------  ------ ------ -----  --- ---- ---
2021 11 27 10  02 06 39.736   +16 42 16.50  .07384 1.0513 150.0 21.4 .087 150
2021 11 27 11  02 06 52.503   +16 43 07.65  .07377 1.0512 150.0 21.4 .092 142
2021 11 27 12  02 07 05.304   +16 43 58.88  .07370 1.0512 150.0 21.4 .099 134
2021 11 27 13  02 07 18.139   +16 44 50.17  .07363 1.0511 150.0 21.4 .107 128
2021 11 27 14  02 07 31.008   +16 45 41.53  .07357 1.0511 150.0 21.4 .118 122
2021 11 27 15  02 07 43.910   +16 46 32.97  .07350 1.0510 150.0 21.4 .130 117
2021 11 27 16  02 07 56.846   +16 47 24.47  .07343 1.0509 150.0 21.4 .143 112
2021 11 27 17  02 08 09.816   +16 48 16.05  .07336 1.0509 150.0 21.4 .157 109
2021 11 27 18  02 08 22.820   +16 49 07.70  .07330 1.0508 150.0 21.4 .173 105
2021 11 27 19  02 08 35.858   +16 49 59.41  .07323 1.0508 150.1 21.4 .189 103
2021 11 27 20  02 08 48.930   +16 50 51.20  .07316 1.0507 150.1 21.4 .206 100
2021 11 27 21  02 09 02.037   +16 51 43.05  .07310 1.0507 150.1 21.4 .225  98
2021 11 27 22  02 09 15.177   +16 52 34.98  .07303 1.0506 150.1 21.4 .244  96
2021 11 27 23  02 09 28.352   +16 53 26.97  .07296 1.0505 150.1 21.4 .264  95
2021 11 28 00  02 09 41.561   +16 54 19.03  .07290 1.0505 150.1 21.4 .285  93
2021 11 28 01  02 09 54.804   +16 55 11.16  .07283 1.0504 150.1 21.4 .306  92
2021 11 28 02  02 10 08.082   +16 56 03.35  .07276 1.0504 150.1 21.4 .328  91
2021 11 28 03  02 10 21.394   +16 56 55.61  .07270 1.0503 150.2 21.4 .352  90
2021 11 28 04  02 10 34.740   +16 57 47.94  .07263 1.0502 150.2 21.4 .375  89
2021 11 28 05  02 10 48.121   +16 58 40.34  .07257 1.0502 150.2 21.4 .400  88
2021 11 28 06  02 11 01.537   +16 59 32.81  .07250 1.0501 150.2 21.4 .425  88
2021 11 28 07  02 11 14.988   +17 00 25.34  .07244 1.0501 150.2 21.4 .451  87
2021 11 28 08  02 11 28.473   +17 01 17.93  .07237 1.0500 150.2 21.4 .478  86
2021 11 28 09  02 11 41.993   +17 02 10.59  .07230 1.0500 150.2 21.4 .506  86
2021 11 28 10  02 11 55.547   +17 03 03.32  .07224 1.0499 150.3 21.4 .534  85
2021 11 28 11  02 12 09.137   +17 03 56.11  .07217 1.0499 150.3 21.4 .563  85
2021 11 28 12  02 12 22.761   +17 04 48.97  .07211 1.0498 150.3 21.4 .592  84
2021 11 28 13  02 12 36.421   +17 05 41.89  .07204 1.0497 150.3 21.4 .623  84
2021 11 28 14  02 12 50.115   +17 06 34.88  .07198 1.0497 150.3 21.4 .654  84
2021 11 28 15  02 13 03.845   +17 07 27.93  .07191 1.0496 150.3 21.4 .686  83
2021 11 28 16  02 13 17.610   +17 08 21.04  .07185 1.0496 150.3 21.4 .719  83
2021 11 28 17  02 13 31.410   +17 09 14.21  .07179 1.0495 150.4 21.4 .752  83
2021 11 28 18  02 13 45.245   +17 10 07.45  .07172 1.0495 150.4 21.4 .786  82
2021 11 28 19  02 13 59.115   +17 11 00.75  .07166 1.0494 150.4 21.4 .821  82
2021 11 28 20  02 14 13.021   +17 11 54.11  .07159 1.0494 150.4 21.4 .857  82
2021 11 28 21  02 14 26.962   +17 12 47.54  .07153 1.0493 150.4 21.4 .893  81
2021 11 28 22  02 14 40.939   +17 13 41.02  .07147 1.0492 150.4 21.4 .930  81
2021 11 28 23  02 14 54.951   +17 14 34.57  .07140 1.0492 150.4 21.3 .968  81
2021 11 29 00  02 15 08.999   +17 15 28.18  .07134 1.0491 150.5 21.3 1.01  81
2021 11 29 01  02 15 23.082   +17 16 21.85  .07127 1.0491 150.5 21.3 1.05  81
2021 11 29 02  02 15 37.201   +17 17 15.57  .07121 1.0490 150.5 21.3 1.09  81
2021 11 29 03  02 15 51.355   +17 18 09.36  .07115 1.0490 150.5 21.3 1.13  80
2021 11 29 04  02 16 05.546   +17 19 03.21  .07109 1.0489 150.5 21.3 1.17  80
2021 11 29 05  02 16 19.772   +17 19 57.11  .07102 1.0489 150.5 21.3 1.21  80
2021 11 29 06  02 16 34.034   +17 20 51.08  .07096 1.0488 150.6 21.3 1.25  80
2021 11 29 07  02 16 48.331   +17 21 45.10  .07090 1.0488 150.6 21.3 1.30  80
2021 11 29 08  02 17 02.665   +17 22 39.18  .07083 1.0487 150.6 21.3 1.34  80
2021 11 29 09  02 17 17.035   +17 23 33.31  .07077 1.0487 150.6 21.3 1.39  80